EW4585 Weather Reports


time (UTC)temp
C
wind
direction
speed
KPH
gust
KPH
rain 1hr
cm
rain 24hr
cm
rain mn
cm
humidity
%
barometer
mb
20260509090008 11 204 1.6 4.8 0.00 0.43 0.00 93 1006.2
20260509082959 11 204 1.6 3.2 0.00 0.43 0.00 93 1006.1
20260509081459 11 206 3.2 8.0 0.00 0.43 0.00 93 1006.0
20260509080005 11 205 0.0 1.6 0.00 0.43 0.00 93 1006.2
20260509074458 11 205 0.0 4.8 0.00 0.43 0.00 92 1006.4
20260509072959 11 205 0.0 3.2 0.00 0.43 0.00 93 1006.7
20260509071458 11 205 0.0 3.2 0.00 0.43 0.00 93 1006.8
20260509070004 11 205 0.0 1.6 0.00 0.43 0.00 93 1007.0
20260509064459 11 205 0.0 6.4 0.00 0.43 0.00 92 1007.2
20260509062959 11 207 1.6 9.7 0.00 0.43 0.00 92 1007.4
20260509061458 11 197 6.4 12.9 0.00 0.43 0.00 92 1007.5
20260509060002 11 194 1.6 6.4 0.00 0.43 0.00 92 1007.7
20260509054459 11 192 1.6 9.7 0.00 0.43 0.00 92 1007.7
20260509053000 11 198 3.2 8.0 0.00 0.43 0.00 92 1007.9
20260509051458 11 210 1.6 6.4 0.00 0.43 0.00 92 1007.8
20260509050006 11 200 4.8 8.0 0.00 0.43 0.00 92 1007.7
20260509044500 11 200 1.6 6.4 0.00 0.43 0.00 92 1007.7
20260509043001 11 197 3.2 8.0 0.00 0.43 0.00 92 1007.7
20260509041501 12 197 0.0 4.8 0.00 0.43 0.00 92 1007.8
20260509040006 12 197 1.6 8.0 0.00 0.43 0.00 92 1007.8
20260509034502 12 197 3.2 4.8 0.00 0.43 0.43 92 1007.7
20260509033002 12 197 1.6 3.2 0.00 0.43 0.43 92 1007.8
20260509031500 12 197 0.0 3.2 0.00 0.43 0.43 92 1007.8
20260509030006 12 197 1.6 4.8 0.00 0.43 0.43 92 1008.1
20260509024501 12 197 0.0 3.2 0.00 0.43 0.43 91 1008.0
20260509021500 12 196 3.2 6.4 0.00 0.43 0.43 91 1008.2
20260509014501 12 204 0.0 3.2 0.00 0.43 0.43 91 1007.9
20260509013001 12 204 0.0 3.2 0.00 0.43 0.43 91 1008.0
20260509011501 12 204 0.0 3.2 0.00 0.43 0.43 91 1007.8
20260509010006 12 204 0.0 4.8 0.00 0.43 0.43 91 1007.9
20260509004500 12 206 3.2 8.0 0.00 0.43 0.43 91 1007.8
20260509003001 12 196 3.2 6.4 0.00 0.43 0.43 91 1008.0
20260509001501 12 192 1.6 4.8 0.00 0.43 0.43 91 1008.0
20260509000005 12 190 4.8 8.0 0.00 0.43 0.43 90 1008.3
20260508234501 12 202 3.2 8.0 0.00 0.43 0.43 90 1008.3
20260508233001 12 196 0.0 4.8 0.00 0.43 0.43 90 1008.3
20260508231500 12 201 0.0 6.4 0.00 0.43 0.43 90 1008.5
20260508230004 12 201 3.2 9.7 0.03 0.43 0.43 90 1008.3
20260508224501 13 202 1.6 11.3 0.08 0.46 0.43 90 1008.4
20260508223001 13 180 3.2 11.3 0.10 0.46 0.43 90 1008.4
20260508221500 13 204 0.0 4.8 0.15 0.46 0.43 90 1008.5
20260508213001 13 204 1.6 4.8 0.15 0.36 0.33 89 1008.5
20260508211500 13 261 1.6 4.8 0.15 0.30 0.28 89 1008.9
20260508210005 13 258 1.6 9.7 0.15 0.28 0.25 88 1009.0
20260508204459 13 258 3.2 12.9 0.13 0.23 0.20 87 1009.2
20260508203001 14 262 1.6 11.3 0.13 0.18 0.15 86 1009.2
20260508201459 14 348 1.6 6.4 0.13 0.15 0.13 85 1009.3
20260508200005 14 243 1.6 6.4 0.10 0.13 0.10 84 1009.5
20260508194459 15 262 3.2 12.9 0.08 0.10 0.08 81 1010.0
20260508193001 16 275 4.8 11.3 0.03 0.05 0.03 75 1009.8
20260508191459 16 220 4.8 14.5 0.00 0.03 0.00 70 1009.7
20260508190004 17 259 3.2 14.5 0.00 0.03 0.00 65 1009.7
20260508184500 17 231 6.4 14.5 0.00 0.03 0.00 65 1009.8
20260508182959 17 244 3.2 11.3 0.00 0.03 0.00 64 1009.8
20260508181459 17 274 8.0 17.7 0.00 0.03 0.00 61 1009.8
20260508180006 18 274 6.4 20.9 0.00 0.03 0.00 59 1009.9
20260508174500 20 259 6.4 20.9 0.00 0.03 0.00 56 1010.0
20260508173000 21 253 8.0 20.9 0.00 0.03 0.00 57 1009.9
20260508171459 21 246 8.0 27.4 0.00 0.03 0.00 60 1010.1
20260508170004 18 200 6.4 16.1 0.00 0.03 0.00 62 1010.4
20260508164501 18 252 6.4 14.5 0.00 0.03 0.00 60 1011.0
20260508163000 18 242 4.8 14.5 0.00 0.03 0.00 62 1011.2
20260508161459 18 238 6.4 14.5 0.00 0.03 0.00 61 1011.3
20260508160004 17 207 8.0 17.7 0.00 0.03 0.00 65 1011.5
20260508154500 17 246 4.8 16.1 0.00 0.03 0.00 64 1011.5
20260508151459 16 202 3.2 14.5 0.00 0.03 0.00 66 1011.6
20260508150005 16 229 4.8 8.0 0.00 0.03 0.00 64 1011.8
20260508144500 16 254 4.8 8.0 0.00 0.03 0.00 66 1011.9
20260508143000 15 263 4.8 9.7 0.00 0.03 0.00 69 1012.1
20260508141459 15 221 6.4 14.5 0.00 0.03 0.00 67 1012.2
20260508140005 13 219 6.4 14.5 0.00 0.03 0.00 70 1012.3
20260508131459 12 274 3.2 9.7 0.00 0.03 0.00 71 1012.5
20260508130004 11 236 0.0 6.4 0.00 0.03 0.00 76 1012.5
20260508124459 11 211 4.8 9.7 0.00 0.03 0.00 78 1012.5
20260508123000 10 217 1.6 6.4 0.00 0.03 0.00 79 1012.5
20260508121500 10 252 3.2 6.4 0.00 0.03 0.00 79 1012.4
20260508120005 9 261 0.0 4.8 0.00 0.03 0.00 79 1012.5
20260508114500 9 261 0.0 0.0 0.00 0.03 0.00 80 1012.5
20260508113000 9 261 0.0 0.0 0.00 0.03 0.00 79 1012.5
20260508111459 10 261 0.0 0.0 0.00 0.03 0.00 78 1012.3
20260508110004 10 261 0.0 0.0 0.00 0.03 0.00 78 1012.4
20260508104459 10 261 0.0 1.6 0.00 0.03 0.00 76 1012.2
20260508103000 10 261 0.0 1.6 0.00 0.03 0.00 75 1012.2
20260508100003 10 261 3.2 9.7 0.00 0.03 0.00 74 1012.1
20260508094458 10 279 4.8 9.7 0.00 0.03 0.00 74 1012.4
20260508092959 10 323 6.4 19.3 0.00 0.03 0.00 76 1012.1